Terminal Aerodrome Forecast
Issued by NWS Portland, ME

Home | Current Version | Previous Version | Text Only | Print | Product List | Glossary On
Versions: 1 2 3 4 5 6 7 8 9 10 11 12 13 14 15 16 17 18 19 20 21 22 23
192
FTUS41 KGYX 251720
TAFCON
TAF
KCON 251720Z 2518/2618 VRB03KT P6SM SKC
     FM260900 32002KT 5SM BR SKC
     FM261200 31004KT P6SM SKC=

USA.gov is the U.S. government's official web portal to all federal, state and local government web resources and services.